Lid_Strength_Index
2 4 3 6 11 12 14 12 9 9 10 9 7 8 10 12 11 12 10 5 3 3 1 1 0 0 -0 -0 -0 -0 -1 -1 -1 -0 -0 -0 -0 -0 -1 -1 -1 -1 -1 -1 -2 -1 -1 -1 -1
4 4 5 7 13 16 15 10 10 10 9 8 9 10 11 13 12 12 11 7 3 3 2 2 1 0 0 0 1 0 0 0 0 0 0 1 0 0 0 0 0 0 -0 -0 -0 -1 -1 -1 -1
3 5 8 10 13 15 14 11 10 9 8 8 10 11 11 13 12 12 11 7 5 4 3 2 1 1 0 1 1 1 1 1 1 1 1 1 1 1 1 1 0 0 1 1 1 1 0 -1 -1
7 7 7 12 14 11 10 8 9 10 9 9 9 12 13 11 11 10 9 7 5 5 4 2 1 1 1 1 2 2 1 2 2 2 2 2 2 2 2 2 2 2 1 1 1 1 -0 -1 -1
8 8 12 14 13 10 9 7 8 10 10 10 9 13 14 12 10 9 9 7 6 6 6 4 3 2 2 2 2 2 2 3 3 3 3 3 3 3 3 3 3 3 3 2 1 -0 -0 -0 -0
10 7 13 15 13 10 9 7 9 9 9 10 10 13 14 11 10 10 8 8 6 7 7 6 4 4 3 3 3 3 3 4 4 4 4 5 5 5 4 3 3 3 3 2 0 0 1 1 0
10 11 13 13 13 11 9 7 8 8 9 12 11 13 14 12 11 10 9 8 7 8 8 8 7 6 5 5 5 5 5 5 6 6 6 6 6 5 5 3 3 3 1 1 1 1 1 1 1
8 10 13 13 13 12 9 11 9 7 10 10 11 14 15 12 10 11 11 10 9 9 9 10 9 9 10 9 7 7 7 8 8 8 8 8 8 6 5 4 3 2 2 2 1 1 2 2 2
7 12 14 13 12 11 10 11 12 10 11 12 12 12 12 11 11 12 12 12 11 10 11 11 10 10 11 11 10 9 9 9 9 10 9 10 12 9 7 4 3 3 3 3 2 2 3 4 4
10 12 12 9 9 10 9 9 11 11 11 12 12 12 11 11 12 12 13 13 12 12 12 12 12 12 12 11 12 13 12 13 13 13 12 12 12 10 8 6 5 4 4 3 3 3 5 6 6
9 11 9 9 10 11 11 12 10 11 12 9 12 12 12 11 12 12 12 12 12 12 12 11 12 13 13 13 13 14 14 13 13 12 12 12 12 12 11 10 10 10 7 8 7 7 7 7 6
12 9 8 8 9 10 12 11 12 12 10 10 10 11 12 12 12 12 12 12 12 12 12 12 12 13 13 14 14 14 13 13 13 13 12 12 13 12 11 10 10 9 9 8 8 8 6 6 6
11 11 9 8 9 10 10 10 10 9 10 11 11 11 11 12 11 11 11 11 12 12 12 12 13 13 13 13 13 13 13 14 14 13 13 13 13 11 10 10 10 10 9 9 9 9 9 10 10
11 11 11 9 9 10 10 12 10 9 9 11 11 12 11 11 11 11 11 11 11 12 12 13 13 13 13 14 13 14 14 14 14 14 13 13 12 11 10 10 10 11 10 10 10 10 11 12 12
12 13 12 12 11 11 11 13 12 9 10 11 11 11 11 11 11 11 10 10 11 12 12 13 14 13 14 13 14 14 14 14 14 14 14 13 11 10 10 10 11 11 11 11 11 12 12 13 12
14 15 17 14 12 12 12 16 11 10 9 11 12 12 12 11 11 10 9 10 11 12 12 13 13 14 14 14 14 14 14 14 15 14 13 12 11 10 10 10 11 11 11 12 12 13 13 13 14
16 19 17 15 12 13 13 16 13 12 11 10 12 12 11 10 10 10 9 11 11 12 13 13 14 14 14 14 15 14 14 15 15 14 13 12 11 9 10 11 11 11 12 12 12 13 13 13 13
18 18 16 16 14 15 16 15 13 14 13 12 13 12 11 11 10 10 11 11 11 12 12 13 14 14 14 14 15 14 14 15 14 14 13 12 11 10 10 10 11 11 12 13 13 13 13 14 13
16 17 17 16 14 16 16 15 14 14 15 14 14 13 11 11 10 10 10 11 12 12 14 14 15 14 14 15 15 15 15 15 14 13 13 12 12 10 10 10 11 11 12 13 13 13 13 14 13
15 17 17 16 15 16 17 17 15 15 14 14 13 13 11 11 11 10 11 11 11 13 13 14 14 14 14 14 14 14 14 15 14 13 13 12 12 10 10 10 11 12 12 13 12 12 13 13 12
17 17 18 17 17 17 19 18 17 16 15 13 13 12 11 11 11 11 11 12 12 13 13 14 14 14 14 14 14 15 14 14 15 14 14 13 12 12 10 10 11 11 11 12 12 12 12 14 13
18 17 16 17 19 22 19 23 20 16 15 16 14 13 12 12 11 11 11 12 12 12 13 13 14 14 14 14 14 14 14 15 15 14 14 13 12 12 11 10 10 11 11 12 12 11 13 13 14
17 16 18 18 20 21 21 22 21 18 17 15 16 15 14 13 11 11 11 11 11 12 13 14 14 14 14 14 14 14 15 15 14 13 14 14 13 13 12 12 12 12 12 13 13 14 14 14 15
16 17 18 19 21 26 21 21 22 19 16 16 16 15 15 14 13 11 11 11 12 12 13 14 14 14 14 14 14 14 14 14 14 15 15 14 14 14 13 13 13 13 13 13 13 14 14 14 14
17 19 23 26 28 25 21 22 18 16 15 16 16 16 15 15 15 13 13 13 13 14 14 14 14 14 14 14 14 13 13 13 13 14 14 14 15 15 14 13 14 13 13 13 13 14 14 14 15
19 19 22 27 25 22 20 22 18 15 15 16 15 16 15 16 15 14 13 13 13 13 14 13 14 14 14 14 14 13 14 13 13 13 13 14 14 14 14 13 13 13 13 13 14 14 14 14 15
20 21 18 24 26 25 21 20 16 16 16 15 16 16 16 15 15 14 13 13 13 13 14 14 14 14 14 14 14 13 13 13 13 13 13 13 13 13 13 13 14 13 13 13 14 14 15 14 15
19 18 22 23 29 29 21 21 20 18 17 16 16 16 15 15 15 15 13 13 13 13 13 13 14 14 14 14 13 14 13 13 12 12 13 13 13 13 13 13 14 14 14 14 14 15 14 14 15
21 21 21 19 21 25 25 21 17 16 16 16 16 15 14 14 15 15 14 13 12 12 13 13 14 14 14 14 14 13 13 13 12 12 13 13 13 13 13 13 13 14 14 14 15 15 15 15 15
21 20 20 23 25 23 22 20 15 15 15 15 14 14 15 14 14 15 15 14 13 13 13 13 13 13 13 13 13 14 13 13 14 13 13 13 13 13 13 13 13 14 14 14 14 15 15 15 15